Theta_e
308 308 308 308 309 310 310 310 310 310 310 310 311 311 311 311 311 312 312 312 312 312 312 312 312 312 312 312 312 312 312 312 312 312 312 311 311 311 311 310 310 310 310 310 310 311 311 310 310 309 309 310 310 310 310 309 309 309 309 309 308 309 308 309 313 312 307 306 307 305 304 304 305 305 304 304 304 304 304 304 304 304 304 304 306
307 307 307 308 308 308 308 309 309 310 310 310 310 310 310 310 310 310 311 311 311 311 311 311 311 311 311 311 312 312 312 312 311 311 311 311 311 311 311 310 310 310 310 310 310 311 311 311 310 309 309 309 310 310 309 309 309 309 309 309 308 308 308 308 309 309 306 306 306 304 304 305 305 305 305 304 304 304 304 304 304 304 304 304 304
307 307 307 307 307 307 307 308 309 309 310 309 309 309 310 310 310 310 310 310 311 311 311 311 310 310 310 310 311 311 311 311 311 311 311 311 311 311 310 310 310 310 309 310 310 310 311 310 310 310 309 309 309 310 309 309 308 309 308 308 308 308 308 308 308 307 305 305 305 304 304 305 305 305 304 304 304 303 304 304 304 304 304 304 304
307 307 307 307 307 307 307 307 308 309 309 309 309 309 309 309 310 310 310 310 310 311 310 310 310 310 310 310 310 311 311 311 311 311 310 311 310 310 310 310 310 310 309 309 309 310 310 310 310 310 309 309 310 310 309 309 308 308 308 308 308 308 307 307 308 308 306 305 305 305 304 304 304 305 305 304 305 304 304 304 304 304 304 304 304
307 307 307 307 307 307 307 307 307 307 307 308 308 308 308 309 309 309 310 310 310 310 310 310 310 310 310 310 310 310 310 310 310 310 310 310 310 310 310 310 310 310 309 309 309 309 309 309 309 310 309 309 309 309 309 309 308 308 308 308 308 307 307 307 307 308 308 306 306 306 305 304 304 305 305 305 305 305 304 304 304 304 304 304 304
307 307 307 307 307 307 307 307 307 306 306 306 306 307 307 308 309 309 309 309 310 310 310 310 310 310 309 309 309 309 310 310 310 310 310 309 310 309 310 310 309 310 309 309 309 309 309 309 309 309 309 309 309 309 309 309 308 308 307 308 308 307 307 307 307 307 308 308 307 307 306 305 304 304 305 304 304 304 303 303 303 303 303 303 303
308 307 308 307 307 307 307 307 307 307 306 307 306 307 307 308 308 309 309 309 309 310 310 310 310 309 309 309 309 309 309 309 309 309 309 309 309 309 309 309 309 309 309 309 309 309 309 309 309 309 309 309 308 308 309 308 308 308 307 307 307 307 307 307 307 307 308 308 307 306 306 305 305 304 304 304 303 303 303 303 303 303 303 303 303
307 307 307 307 307 307 307 307 307 307 307 307 307 307 307 308 308 308 309 309 309 309 310 310 309 309 309 309 309 309 309 309 309 309 309 309 308 308 309 309 309 309 309 309 309 309 309 309 309 309 309 309 308 308 308 308 308 307 307 307 307 307 307 307 307 307 307 307 306 306 305 305 304 304 303 303 303 303 303 303 303 303 302 302 302
307 306 306 306 306 306 306 306 306 307 307 307 307 308 308 308 308 308 308 308 308 308 309 309 309 309 309 309 309 309 309 309 309 309 309 308 308 308 308 308 309 308 309 309 309 309 309 309 309 308 308 309 308 308 308 308 307 307 307 307 307 307 307 307 307 306 306 305 305 305 305 303 303 303 302 302 303 303 303 303 303 303 302 302 302
305 305 305 305 305 306 306 306 306 306 307 307 307 308 308 308 308 308 308 308 308 308 308 309 309 309 309 309 309 309 309 309 309 309 309 308 308 308 308 308 308 308 308 308 308 308 309 309 309 308 308 308 308 308 308 307 307 307 306 306 307 307 306 306 306 305 305 304 303 304 303 301 303 303 303 303 303 303 303 303 303 303 302 301 301
301 301 302 302 303 304 304 305 306 306 307 307 307 307 307 308 308 308 308 308 308 308 308 308 308 308 308 308 308 308 308 309 309 308 308 308 308 308 308 308 308 308 308 308 308 308 308 308 308 308 308 308 308 308 308 308 307 307 306 306 306 306 306 306 305 305 304 303 303 303 302 301 302 304 303 303 303 303 302 302 302 302 301 301 301
300 300 301 301 301 302 302 302 302 303 304 305 305 305 306 306 307 307 308 307 308 307 307 307 308 308 308 308 308 308 308 308 308 308 308 308 308 308 307 307 307 308 308 308 307 307 307 308 308 308 308 308 308 308 308 307 307 307 307 306 306 306 306 305 305 305 304 303 302 302 303 302 303 303 304 303 303 303 302 302 302 302 301 300 301
299 299 299 299 299 299 299 300 300 300 301 302 303 303 304 305 305 306 306 306 307 307 307 307 307 307 308 308 308 308 308 308 308 308 308 308 308 308 307 307 307 307 307 307 307 307 307 307 307 307 308 307 308 308 308 307 307 307 307 307 306 306 306 305 305 305 305 304 303 303 303 303 303 303 304 304 303 302 301 301 301 301 301 301 301
295 295 295 295 296 296 297 297 298 299 300 301 301 302 302 303 304 304 305 305 305 306 306 306 306 307 307 307 307 307 307 307 307 307 308 308 308 307 307 307 307 307 307 307 307 307 307 307 307 307 307 307 307 307 307 307 307 307 307 307 306 306 306 306 305 305 305 305 304 303 304 304 304 304 304 304 303 302 302 301 301 301 301 300 300
291 292 292 291 291 292 292 293 295 297 299 300 301 301 301 302 302 302 303 304 304 305 305 305 305 306 306 306 306 307 306 307 307 307 307 307 307 307 307 307 307 307 307 307 307 307 306 306 306 306 306 306 306 306 306 306 307 306 306 306 306 306 306 306 305 305 305 305 304 304 304 304 304 304 304 304 303 303 302 302 301 301 300 299 299
289 289 290 289 289 290 290 291 292 293 296 297 298 299 300 300 301 302 302 303 303 303 304 304 304 304 305 305 305 305 305 306 306 306 306 306 306 306 306 306 307 307 307 307 306 306 306 306 306 306 306 306 306 305 306 306 306 305 305 305 305 305 305 305 305 305 304 304 304 304 304 304 304 304 303 303 303 302 301 301 300 300 299 297 297
287 288 288 289 289 289 290 290 291 292 293 294 295 296 297 298 300 301 301 301 302 302 302 302 303 303 303 303 303 304 304 304 304 304 305 305 305 306 306 305 306 306 306 306 306 306 306 306 306 305 305 305 305 305 304 304 304 304 303 303 303 303 303 303 303 303 303 303 304 304 304 303 303 303 302 302 301 301 301 299 299 299 298 297 296
286 287 287 288 289 289 289 290 291 291 292 293 294 295 295 296 297 298 299 300 300 301 301 301 301 301 301 301 301 302 302 302 302 302 303 303 304 304 305 304 304 305 305 305 305 305 305 305 305 305 305 304 304 304 303 303 303 302 302 301 300 300 300 300 300 301 301 301 302 302 302 302 302 301 301 301 300 300 300 299 298 298 297 296 296
286 286 287 287 288 288 289 289 290 291 291 292 293 293 294 295 295 295 296 298 298 299 299 299 298 297 298 298 298 299 299 299 299 300 300 301 302 303 303 303 303 303 303 303 303 304 304 304 304 304 304 304 304 303 302 302 301 301 300 299 298 297 298 298 299 299 299 300 300 300 300 300 300 300 300 299 299 299 299 299 299 298 297 296 295
285 286 286 287 287 288 289 289 290 290 291 292 292 292 293 294 294 294 295 296 297 296 296 296 295 294 294 295 295 296 296 297 297 297 298 298 299 300 301 301 301 301 302 301 301 301 301 302 302 302 303 303 303 302 301 301 301 300 300 299 298 297 297 298 298 298 299 299 299 299 299 299 299 299 298 298 298 298 298 298 297 298 297 296 295
285 285 286 286 287 288 289 289 289 290 290 291 291 292 292 293 293 294 294 295 295 294 294 294 293 292 292 292 293 293 294 295 296 296 297 297 297 298 299 300 300 300 300 299 299 299 299 299 300 301 301 301 301 301 301 300 301 300 300 300 299 299 298 297 297 298 298 298 297 297 297 297 297 297 297 297 297 296 296 296 296 296 296 296 295
284 285 285 285 285 286 287 288 289 289 290 290 291 291 292 292 293 293 293 294 293 292 292 292 291 290 290 290 291 291 292 293 294 295 296 297 296 297 298 299 299 299 298 297 297 297 297 298 298 299 299 300 300 300 300 300 300 300 300 300 299 299 298 297 297 297 296 296 296 295 295 295 295 295 295 295 295 295 295 295 295 294 295 295 295
283 284 285 285 285 285 285 286 287 288 289 289 290 290 291 291 292 292 292 292 292 291 290 290 289 288 288 288 289 289 290 291 292 294 295 296 296 296 297 298 298 298 297 296 295 295 296 296 297 297 298 299 299 299 299 299 299 300 299 299 299 298 297 296 296 296 295 295 294 293 293 293 292 292 292 292 292 292 293 293 293 293 293 293 293
282 283 283 284 284 284 285 285 286 287 287 288 289 289 289 290 291 291 291 291 290 289 288 288 287 286 285 286 287 288 289 290 291 292 293 294 295 296 296 297 297 297 297 295 294 294 295 295 296 296 296 296 296 296 297 297 298 299 298 298 298 297 296 296 295 294 294 293 292 292 291 290 290 289 289 290 290 291 291 292 291 292 291 291 291
281 281 282 282 282 283 284 284 285 285 286 287 287 287 287 288 289 289 290 290 289 288 287 287 286 284 283 283 284 285 287 288 289 290 291 292 294 295 295 296 295 295 295 293 293 293 293 293 293 293 293 293 293 294 294 294 295 296 296 296 296 296 295 294 294 293 292 291 290 289 288 287 288 287 287 288 288 288 289 289 289 289 289 289 288
279 280 281 281 281 282 282 283 283 284 285 285 285 285 285 286 287 288 288 288 288 287 286 285 285 283 282 282 282 283 285 286 287 288 290 291 292 292 293 293 293 293 292 291 290 290 290 290 290 290 290 291 291 292 291 291 292 293 293 293 293 293 293 293 293 292 290 288 286 285 285 285 285 285 286 286 286 286 286 286 286 286 286 286 286
278 279 280 280 281 281 281 281 282 283 283 284 284 284 284 284 285 285 285 285 286 286 285 284 284 283 282 281 282 282 283 284 285 286 287 289 289 290 291 291 291 291 290 289 288 288 288 288 288 288 288 288 289 289 288 288 289 289 289 289 290 290 291 291 291 290 287 285 284 283 282 282 283 283 283 284 283 283 283 284 284 283 283 284 283
277 278 279 280 280 280 280 280 281 281 281 282 282 282 283 283 283 282 282 283 283 284 284 284 283 282 282 281 281 281 281 282 283 284 285 286 287 288 288 288 288 288 287 286 286 285 285 285 285 285 285 285 285 285 285 285 285 285 285 285 286 286 287 288 288 286 284 283 282 280 280 280 281 281 282 282 281 281 281 282 282 281 282 282 281
275 277 279 280 280 280 280 279 280 280 280 280 280 280 280 281 281 281 281 282 282 282 283 283 282 282 282 281 281 281 280 281 281 282 283 284 285 286 286 286 286 286 285 285 284 284 283 283 282 282 282 282 281 281 281 282 282 282 282 282 283 283 284 284 283 282 282 281 280 279 279 279 279 280 281 280 279 279 280 281 281 280 280 280 279
274 276 278 280 279 279 279 279 279 279 279 279 279 279 279 279 280 280 280 281 281 282 282 282 281 281 281 281 281 281 281 281 281 282 283 283 283 284 285 284 284 283 283 283 283 282 281 280 279 279 279 278 277 277 277 278 279 278 278 279 280 281 281 281 280 280 280 280 280 279 279 278 278 278 279 278 277 277 278 278 279 279 279 278 277
273 275 277 279 279 278 278 278 278 278 278 278 278 279 278 279 279 279 280 280 280 280 281 281 281 281 281 281 281 281 281 281 280 281 282 282 283 283 283 283 283 282 282 283 282 280 279 278 277 276 276 275 274 274 274 274 275 275 275 276 277 277 277 277 278 278 279 279 278 277 277 277 276 276 276 275 275 275 276 276 277 277 277 277 275
272 274 275 277 278 278 278 278 278 277 277 277 277 277 277 277 276 277 278 279 279 279 279 280 280 280 280 280 280 280 280 280 280 280 281 281 282 282 282 282 282 281 282 282 280 278 277 276 275 274 274 273 272 272 272 272 272 272 273 273 273 274 274 275 275 276 277 276 276 275 275 275 274 274 274 273 273 273 274 274 274 275 275 275 274
271 273 274 275 276 277 277 277 277 277 277 276 276 276 276 275 274 274 275 277 278 278 278 278 278 278 278 279 279 278 278 279 279 279 280 280 280 281 280 280 280 279 280 280 278 275 275 274 273 272 272 271 271 271 271 271 271 271 271 271 270 271 272 273 274 274 274 274 274 273 273 273 273 272 272 272 272 271 272 272 272 272 272 272 272
270 271 273 273 274 275 276 276 276 276 276 276 276 275 275 274 273 273 274 274 275 275 275 275 276 276 276 276 276 277 277 277 277 278 278 279 279 279 278 278 278 278 278 278 275 273 273 272 271 271 270 270 270 270 269 269 270 270 270 269 269 269 270 271 272 272 272 272 272 271 271 271 271 271 270 270 270 270 270 270 270 270 270 271 270
268 270 271 272 272 273 274 274 274 275 275 274 274 274 274 273 273 273 273 272 271 270 270 271 272 273 273 273 274 274 275 275 275 276 277 277 277 277 277 276 275 275 275 274 273 272 271 270 269 269 269 269 269 268 268 267 267 267 267 267 267 268 268 269 270 270 270 270 270 269 269 269 269 269 269 269 269 269 269 268 269 269 269 269 269
267 268 269 270 271 271 272 272 273 273 273 273 273 273 273 273 272 271 271 270 269 268 268 268 269 270 271 271 271 272 273 273 273 274 274 274 275 276 275 273 271 271 271 271 270 270 270 269 268 268 268 268 267 267 267 267 266 266 266 266 266 267 267 268 268 268 268 268 268 267 267 267 267 268 268 267 268 268 267 267 268 268 268 268 268
267 267 267 268 269 270 270 271 271 271 272 272 272 272 271 271 270 269 269 268 268 267 267 267 268 269 269 269 270 270 270 271 271 272 272 272 273 274 273 271 269 269 268 268 268 268 267 267 267 267 267 267 266 266 266 266 266 266 266 266 266 266 266 266 267 267 267 266 266 266 266 266 266 266 267 267 266 266 266 266 266 266 266 266 266
266 267 266 267 268 268 269 269 270 270 270 271 271 270 270 270 269 268 268 267 267 267 267 267 267 267 267 267 268 268 269 270 270 270 270 270 271 270 270 269 268 268 267 266 266 266 266 266 266 266 266 266 266 266 266 266 265 265 266 265 266 266 265 266 266 266 266 266 265 265 265 265 265 265 266 266 265 265 265 265 265 264 264 264 264
266 266 266 266 267 267 268 268 268 269 269 269 269 269 269 268 268 267 267 267 267 266 266 266 265 265 266 266 267 268 269 268 268 267 267 267 267 267 267 267 266 266 265 265 266 265 265 265 265 266 266 266 266 266 266 266 266 266 266 266 265 265 265 265 265 265 265 265 265 264 265 265 264 264 265 265 264 264 263 263 263 263 263 263 263
265 265 265 265 266 266 266 267 267 267 268 268 268 268 268 267 267 267 266 266 266 265 265 265 264 265 265 266 267 268 267 265 265 265 265 265 266 266 266 265 265 264 264 265 265 265 265 265 265 266 266 266 266 266 266 266 266 266 266 266 266 265 265 265 265 264 264 264 264 264 264 264 263 263 263 263 263 263 262 262 262 262 262 262 262
264 264 265 265 265 265 265 265 265 266 266 266 267 267 266 266 266 266 265 265 265 264 264 264 264 265 265 265 267 268 267 265 264 265 265 264 265 265 265 265 264 264 264 264 264 265 265 265 265 265 265 265 266 266 265 266 266 265 265 265 265 264 264 264 264 263 263 263 263 263 263 262 262 262 262 262 262 262 261 261 261 261 260 260 260
264 264 264 264 264 265 264 264 264 265 265 265 265 265 265 265 265 265 264 264 264 263 263 263 263 264 264 264 265 267 266 265 265 265 264 264 265 264 264 264 265 265 265 265 265 265 265 265 264 265 264 264 265 265 265 265 265 264 264 264 264 264 264 263 263 263 262 262 262 262 262 261 261 261 261 261 261 260 260 260 260 260 259 259 259
264 264 264 264 264 264 264 264 264 264 264 264 264 264 264 264 264 264 264 263 263 263 262 262 263 263 263 263 264 265 265 264 264 264 264 264 264 264 264 264 265 265 265 265 265 265 265 265 264 264 264 264 264 264 264 264 264 264 264 264 263 263 263 263 262 262 262 262 262 261 261 261 261 260 260 260 260 260 259 259 259 259 259 259 258
263 263 263 263 263 263 264 264 263 263 263 263 263 263 263 263 263 263 263 263 263 262 262 262 262 262 263 263 264 264 263 263 263 263 263 263 263 263 264 264 264 264 264 264 264 264 265 265 264 264 264 264 264 263 263 263 263 263 263 263 263 262 262 262 262 262 262 261 261 261 261 260 260 260 260 259 259 259 259 259 259 258 258 258 258
263 263 263 263 263 263 263 263 263 263 263 263 263 263 263 263 263 263 262 262 262 262 262 262 262 263 263 263 263 263 263 263 263 263 263 263 263 263 263 263 263 263 263 263 263 263 263 264 264 264 263 263 263 263 263 263 262 262 262 262 262 262 262 262 261 261 261 261 261 261 260 260 260 260 260 259 259 259 259 259 258 258 258 257 257
263 263 263 263 263 262 262 263 263 263 263 263 263 263 263 263 263 263 262 262 262 262 262 262 262 263 263 263 263 263 263 264 264 264 264 264 264 264 264 264 263 263 263 263 263 263 263 263 263 263 263 263 262 262 262 262 262 262 261 261 261 261 261 261 261 261 261 260 260 260 260 260 259 259 259 259 259 259 258 258 258 258 257 257 257
263 263 263 263 263 263 262 263 263 262 262 263 263 263 263 263 263 263 263 263 262 262 262 262 263 263 263 263 263 263 263 263 264 263 263 263 263 264 264 264 264 264 264 263 263 263 263 263 263 263 262 262 262 262 262 262 262 261 261 261 261 261 260 260 260 260 260 260 259 259 259 259 259 259 259 258 258 258 258 257 257 257 257 256 256
263 263 263 263 263 263 263 263 263 262 262 262 262 262 262 262 263 263 263 263 263 263 263 263 263 263 263 263 263 263 263 263 263 263 263 263 263 263 263 263 263 263 263 263 263 263 263 263 263 263 262 262 262 262 262 262 262 262 261 261 261 260 260 260 260 260 259 259 259 259 258 258 258 258 258 258 258 257 257 257 256 256 256 255 255
263 263 263 263 263 263 263 263 262 262 262 262 262 262 262 262 262 262 262 262 263 263 263 263 263 263 263 263 263 263 263 263 263 263 263 263 263 263 263 263 263 263 263 263 263 263 263 263 263 262 262 262 262 262 262 262 262 261 261 261 260 260 260 259 259 259 259 259 258 258 257 257 257 257 257 257 257 256 256 256 256 255 255 254 254
263 263 263 263 263 262 262 262 262 262 262 262 262 262 262 262 262 262 262 262 262 262 262 262 262 262 262 262 262 263 263 263 263 263 263 263 263 263 263 263 263 263 263 263 262 262 262 262 262 262 262 262 262 262 261 261 261 261 261 261 260 260 260 259 259 259 259 258 258 258 257 256 256 256 256 256 255 255 255 255 255 254 254 254 254
263 263 263 263 263 262 262 262 262 262 262 262 262 262 262 262 262 262 262 262 262 262 262 262 262 262 262 262 262 262 262 262 262 263 263 262 263 262 262 262 262 262 262 262 262 262 262 262 261 261 261 261 261 261 261 261 261 260 260 260 260 260 259 259 259 258 258 257 257 257 256 256 256 255 255 255 255 254 254 254 254 254 254 253 253
Wind_Speed
11 11 12 13 14 15 15 16 17 18 19 20 20 20 20 21 21 20 20 20 21 21 23 24 26 27 28 29 29 29 29 29 30 31 30 30 31 30 30 31 32 32 31 32 32 31 32 32 32 31 28 27 28 28 27 26 26 25 24 23 23 21 16 10 7 5 7 15 18 17 20 20 18 16 14 13 13 13 13 12 12 11 12 13 14
10 10 11 12 13 14 15 15 16 17 19 20 21 22 22 21 21 21 20 21 21 22 22 23 24 25 27 28 28 28 29 29 30 31 31 30 30 30 30 31 32 32 31 32 32 31 32 32 32 33 30 28 28 29 29 28 27 27 25 24 24 23 21 16 11 7 7 13 19 21 22 21 18 15 13 12 13 14 14 14 13 12 12 12 12
8 9 11 11 11 12 13 15 16 17 18 19 20 21 22 21 20 21 21 22 22 22 23 23 24 25 26 27 27 27 28 29 30 31 31 30 30 30 30 31 32 32 32 32 33 32 32 32 32 33 32 30 29 30 30 30 29 28 27 26 25 24 23 21 16 11 10 13 19 23 23 20 18 16 13 11 12 14 14 15 14 13 13 12 12
9 10 11 11 11 12 13 14 15 16 18 19 20 21 21 20 20 21 21 22 23 23 23 24 24 25 25 26 27 28 28 29 30 30 31 31 31 31 31 31 32 33 33 33 34 34 33 33 33 33 33 31 30 30 30 30 30 30 28 27 26 25 25 24 20 16 15 15 17 21 24 21 18 16 14 13 13 14 14 15 15 14 13 13 12
8 9 11 11 12 12 13 14 16 17 18 20 20 20 20 20 20 21 22 22 23 24 24 24 25 25 26 27 27 28 29 29 30 30 31 31 32 31 31 31 32 33 33 33 34 35 35 34 33 33 34 32 30 31 31 30 30 30 29 27 26 25 25 25 23 19 17 18 18 18 21 21 17 16 16 16 15 15 14 14 15 15 14 14 13
8 9 10 12 13 13 14 15 17 18 19 20 20 20 20 21 21 22 23 23 24 24 25 25 26 26 27 27 27 28 28 29 29 30 31 31 31 31 31 32 32 33 34 33 33 34 35 35 33 34 35 34 32 31 31 31 31 31 30 29 27 26 25 25 25 21 18 19 20 18 19 20 18 17 17 17 18 17 16 14 14 14 14 14 14
7 8 10 11 12 13 14 16 17 18 19 20 20 20 20 21 22 22 23 23 24 25 25 26 26 27 27 27 27 27 28 28 29 30 30 31 31 31 31 32 32 32 33 33 33 33 34 35 34 34 35 35 34 33 32 32 31 31 31 30 28 28 26 25 26 24 20 18 19 20 21 20 18 18 18 17 16 16 17 16 15 14 14 13 13
7 8 9 10 11 13 13 14 16 17 18 19 19 19 20 20 21 22 23 24 25 25 26 26 26 26 27 27 27 27 27 28 29 30 30 30 31 31 31 32 32 31 31 32 33 32 33 34 35 35 35 36 36 35 34 34 32 31 31 30 29 29 28 26 27 26 23 20 18 20 22 20 18 18 18 18 16 16 18 18 17 17 15 13 12
7 7 7 8 10 11 12 13 14 15 16 17 18 18 19 20 21 22 23 24 25 25 26 25 26 26 27 27 26 27 28 29 30 30 30 30 31 31 31 31 31 31 30 31 32 32 32 33 35 35 35 36 36 36 36 35 35 33 32 31 31 30 29 27 27 26 24 20 17 18 19 19 20 20 20 23 23 20 19 18 15 15 15 14 13
11 10 9 9 10 10 10 11 12 13 14 16 17 17 18 19 20 21 23 24 25 25 26 25 26 26 26 26 26 27 28 29 30 30 30 30 31 31 31 31 30 31 30 31 32 33 33 33 34 35 35 35 35 36 35 36 36 35 35 34 33 32 30 28 28 27 25 21 20 20 16 16 22 25 25 26 24 20 20 20 16 15 16 14 11
15 15 14 13 11 9 9 9 9 10 11 13 14 15 16 18 19 20 22 23 24 24 24 25 26 26 26 26 26 27 29 29 29 29 29 29 30 30 30 30 30 30 31 31 31 32 32 33 33 34 34 35 35 35 35 35 35 35 35 35 35 35 33 31 29 28 26 23 22 23 19 18 24 28 26 25 23 20 21 22 20 20 20 13 7
17 16 15 14 13 12 11 10 10 9 10 11 12 13 14 16 17 19 20 21 21 22 23 25 25 25 25 26 27 28 28 28 27 27 28 28 29 29 29 29 29 30 30 31 31 32 32 32 32 33 34 35 34 34 34 34 34 34 33 33 34 34 35 34 31 31 29 26 23 24 25 23 24 28 27 25 24 23 21 23 24 24 22 16 10
17 17 17 16 16 15 14 13 12 12 11 11 11 12 13 14 16 17 18 19 20 20 22 23 24 24 24 25 26 27 27 26 26 26 26 27 28 28 28 28 29 29 30 30 30 31 32 31 31 31 33 34 34 34 34 33 33 33 32 32 32 33 33 33 32 32 33 32 28 28 30 29 27 28 29 26 25 25 23 24 26 24 22 19 14
17 17 17 17 17 17 16 15 14 13 12 11 11 10 11 13 14 16 17 17 18 20 21 21 22 22 23 23 24 24 24 24 24 25 25 26 27 28 28 27 28 29 30 30 30 31 32 32 32 31 32 33 34 34 34 34 32 32 32 31 31 32 31 30 30 29 30 32 31 31 32 31 28 28 26 24 25 27 27 27 25 22 20 16 13
18 18 17 18 19 18 18 18 17 15 14 12 10 9 9 10 11 13 14 15 16 18 18 19 19 19 20 20 21 21 21 22 22 23 24 25 27 28 28 27 26 27 28 29 30 31 31 32 33 33 32 33 34 35 35 35 34 33 32 31 30 30 30 29 27 26 26 28 29 28 28 27 26 24 24 23 24 25 25 25 23 22 19 15 14
19 18 17 18 19 18 18 18 18 17 16 14 11 10 9 8 8 8 9 11 12 13 14 15 16 17 17 18 18 19 19 19 20 20 21 23 25 28 29 27 24 24 26 27 28 29 30 32 33 33 33 33 34 35 36 36 35 34 33 30 29 28 28 27 25 23 22 23 24 23 22 23 23 23 23 24 23 23 22 21 21 23 21 16 14
20 19 17 17 18 18 17 17 17 16 16 15 14 12 10 9 7 6 6 6 7 8 10 10 11 12 13 14 15 16 17 17 18 18 19 21 24 27 30 28 24 22 23 24 26 27 28 30 32 33 33 33 34 35 35 35 35 34 32 29 27 26 25 24 23 21 19 19 20 20 19 21 22 23 23 22 22 23 24 24 23 24 21 14 9
20 19 18 18 18 17 17 16 16 15 15 14 14 12 11 9 8 7 6 5 5 6 8 8 7 8 9 11 11 12 14 15 15 16 17 19 23 26 28 28 25 21 20 20 21 23 25 26 28 30 32 32 33 33 34 35 34 34 33 30 26 25 24 23 22 20 19 18 19 19 19 21 22 22 21 20 20 21 23 25 25 26 22 14 10
20 20 19 19 18 17 17 16 15 15 14 13 13 12 10 9 8 8 6 5 4 5 5 5 5 5 6 7 8 9 11 12 13 14 16 18 21 24 26 26 24 21 20 19 19 20 22 22 23 26 28 29 30 31 32 34 34 35 34 31 27 26 28 27 26 25 23 22 21 21 20 20 20 20 19 18 19 19 19 20 23 25 22 19 17
19 19 20 19 18 17 17 16 15 14 14 13 12 11 10 8 8 6 5 4 3 3 4 4 4 3 3 4 5 7 9 10 12 13 14 16 19 21 23 24 23 22 21 20 19 18 19 20 20 21 23 25 26 28 31 33 34 34 35 33 30 30 31 30 28 28 27 25 24 22 21 20 19 19 18 17 17 17 16 17 20 22 21 23 24
16 17 18 18 18 17 17 16 14 13 12 12 11 10 9 7 6 4 3 3 2 3 4 5 5 5 3 3 3 3 5 7 9 10 11 13 16 20 21 22 23 22 20 19 19 18 17 18 18 18 20 21 23 25 29 31 31 32 34 35 33 32 33 31 28 27 26 25 24 22 21 21 20 20 20 20 19 18 18 18 18 18 20 23 24
16 16 16 16 17 17 17 16 14 11 11 11 10 9 8 7 5 2 2 2 3 4 4 5 6 6 5 4 3 2 1 2 5 7 8 9 12 17 19 20 21 21 19 17 17 17 17 18 18 18 18 19 20 24 27 28 27 29 32 32 29 29 31 30 28 26 25 25 24 24 23 23 23 22 22 22 21 20 20 19 18 17 18 19 21
17 16 15 14 15 16 17 16 14 11 10 9 9 8 7 5 3 2 1 3 4 4 4 5 6 6 6 5 4 3 3 2 2 4 6 9 13 15 16 16 18 19 19 18 17 17 17 18 19 18 17 17 18 22 26 25 25 26 28 27 26 27 28 28 28 27 27 26 25 24 23 24 24 23 22 22 20 20 20 19 18 17 16 15 15
16 16 15 14 14 15 14 14 14 12 10 8 8 8 7 5 3 2 1 3 4 4 5 5 5 6 6 6 5 5 4 4 4 4 5 8 13 14 12 12 14 17 18 18 18 18 18 18 18 18 17 17 18 21 22 21 21 23 25 25 26 27 28 29 29 29 28 25 23 22 21 23 24 24 23 22 20 20 20 19 17 16 15 14 14
14 14 15 15 15 15 13 12 11 11 10 8 7 7 7 6 5 4 2 2 3 4 5 5 5 6 6 6 6 6 5 5 5 5 5 6 8 10 10 11 14 16 17 16 17 18 18 19 20 20 21 21 22 22 21 20 21 22 24 25 27 28 29 30 30 28 25 22 22 22 21 22 24 24 23 22 21 20 20 19 18 16 15 15 14
14 14 14 14 15 14 13 11 10 9 8 7 7 7 6 7 6 5 4 2 2 4 5 6 6 7 7 7 7 6 6 6 6 7 7 7 8 8 10 12 14 16 17 18 19 20 22 23 24 24 24 24 24 24 24 23 24 24 24 24 25 26 27 28 27 25 23 22 23 24 23 24 25 24 23 22 21 19 19 19 18 16 15 15 15
15 15 15 15 14 14 13 11 10 9 7 6 6 5 5 6 6 6 6 6 4 3 5 6 6 7 7 7 8 7 7 7 7 8 9 10 11 11 13 14 15 17 19 21 23 24 24 24 24 24 24 24 24 24 24 24 24 23 22 21 21 21 22 24 25 25 25 26 26 26 25 26 25 24 22 21 20 18 17 18 18 16 14 14 14
15 15 15 14 14 13 12 11 9 7 6 6 6 6 6 5 5 5 6 7 7 6 5 5 6 7 8 9 8 8 7 7 7 8 9 11 13 14 16 18 19 20 22 23 24 25 24 24 23 22 23 23 23 23 23 23 22 21 20 19 20 20 20 21 23 24 26 27 27 27 25 24 23 22 21 20 19 18 16 15 16 16 15 14 14
16 15 14 12 11 11 11 11 8 5 3 5 7 8 7 5 4 4 4 5 5 6 6 5 5 6 8 9 9 8 7 7 7 8 10 11 12 15 17 19 21 22 23 24 25 25 23 22 21 21 21 21 21 21 21 21 21 20 19 20 20 21 21 22 23 24 25 26 26 25 24 23 22 21 20 19 17 16 15 14 15 16 15 15 16
17 15 13 11 10 10 10 9 8 5 2 2 5 7 7 6 5 4 4 4 3 4 5 5 5 6 7 7 7 8 8 8 7 7 9 10 11 13 17 19 21 22 23 24 24 22 21 19 18 17 18 18 18 19 19 20 21 20 19 19 20 21 22 22 23 23 23 23 23 22 22 22 21 20 19 19 17 16 15 14 15 15 16 17 18
17 16 15 12 10 10 9 8 7 6 4 2 3 6 8 9 8 7 7 6 6 4 2 2 4 6 6 6 6 6 8 8 8 7 8 8 9 12 15 18 20 21 22 23 21 19 19 18 16 15 16 16 15 16 18 19 20 20 19 19 19 20 21 21 21 22 22 22 22 21 21 21 20 20 19 19 18 17 15 15 15 15 16 18 19
17 17 17 15 13 10 8 8 7 6 5 3 3 5 8 11 11 11 10 9 10 10 10 8 7 6 7 9 11 11 10 10 10 10 10 10 10 12 14 16 16 17 20 21 19 18 18 17 15 15 17 18 17 17 18 18 19 19 20 20 19 19 20 20 20 21 22 23 22 22 21 21 21 20 20 19 19 18 16 15 16 16 16 16 16
17 17 17 17 15 11 8 6 6 5 5 4 4 4 5 7 10 11 12 12 12 13 14 14 14 12 12 13 14 14 13 12 11 12 13 14 14 14 13 12 12 13 17 20 20 18 18 18 16 16 18 19 19 20 21 20 20 20 21 22 21 20 20 20 21 22 22 22 22 22 21 21 21 21 19 18 18 18 17 16 15 16 16 15 14
17 17 17 18 16 12 9 6 5 5 4 4 3 3 3 4 8 10 10 10 11 12 14 15 15 15 15 14 14 14 14 13 12 13 14 15 15 14 14 13 12 12 15 19 21 20 20 20 19 19 19 19 19 20 21 21 22 23 23 23 23 22 21 21 21 22 22 22 22 21 21 20 20 20 19 18 17 17 16 15 15 15 16 16 15
17 17 16 16 15 13 10 7 5 4 3 3 3 2 3 4 5 6 5 6 9 11 12 13 14 14 14 14 13 13 13 13 13 13 13 13 13 14 15 15 14 13 14 17 19 20 20 21 20 20 21 20 20 20 20 20 21 22 23 23 22 22 21 21 21 22 22 22 21 20 20 19 18 18 18 18 17 16 15 14 14 14 15 15 14
17 15 15 15 15 14 12 9 5 4 2 1 2 2 3 4 5 6 7 9 11 11 11 11 11 12 13 13 13 12 12 13 13 12 12 11 10 12 14 14 14 15 15 15 17 18 20 21 21 22 22 22 21 21 21 21 21 21 21 21 21 21 20 20 20 21 20 20 20 19 19 18 17 17 18 17 16 16 15 14 14 13 13 13 12
15 14 14 15 14 13 12 10 7 5 2 1 2 3 4 5 6 8 8 9 9 9 9 9 9 9 10 11 12 12 12 11 11 11 11 10 10 12 15 16 17 17 16 16 16 18 19 19 21 23 23 23 23 23 22 22 21 20 20 20 19 19 19 18 18 18 19 19 19 17 17 17 17 16 17 17 16 15 14 13 13 12 11 12 11
13 12 13 13 12 11 10 9 7 5 2 1 3 4 6 7 8 9 9 9 8 8 8 8 8 8 8 8 10 11 12 12 12 13 13 13 13 15 17 18 19 20 19 17 18 19 19 18 19 21 22 22 23 23 22 22 21 20 19 18 18 17 17 16 16 16 16 17 17 16 16 16 16 15 15 16 16 16 14 13 13 12 11 11 11
12 11 11 11 10 9 8 7 5 3 1 1 3 6 8 9 10 10 10 10 9 9 9 10 10 9 8 6 6 8 11 14 15 16 17 16 17 18 19 19 20 20 20 19 19 19 19 18 17 18 19 19 20 20 20 20 19 18 17 17 17 16 15 14 14 14 14 15 15 14 14 14 15 15 15 15 15 16 15 14 14 13 13 12 12
11 10 10 9 9 7 6 5 5 4 3 3 4 6 8 9 9 10 11 11 10 9 10 11 10 8 7 5 4 7 12 15 16 17 18 18 17 18 18 19 19 18 18 18 19 19 19 18 17 16 16 16 16 17 17 17 17 17 16 16 16 15 14 13 13 13 12 13 13 13 13 13 14 14 14 14 14 14 14 14 14 13 13 13 12
9 8 8 8 7 6 7 7 7 7 6 5 6 7 7 8 8 10 10 10 10 10 11 11 10 8 7 5 4 8 13 15 16 17 18 17 17 18 18 17 17 17 17 16 16 17 17 16 16 15 15 14 14 14 14 15 15 16 15 15 15 14 14 13 12 11 11 11 11 11 11 11 12 12 13 13 13 13 13 13 13 13 13 12 12
8 7 6 6 6 6 8 9 8 8 8 8 8 8 8 8 8 9 9 9 9 10 11 11 10 9 8 6 6 9 13 15 16 16 16 16 16 16 16 15 15 15 15 15 15 14 15 14 14 13 13 12 11 11 11 11 12 12 13 13 13 13 13 12 11 10 10 9 10 10 10 10 11 11 11 12 12 12 12 12 12 12 12 12 11
8 6 6 5 5 6 7 7 8 9 9 10 9 9 9 9 9 10 10 10 10 10 10 9 9 9 8 7 8 10 12 13 14 14 14 14 14 14 13 13 12 12 12 12 12 12 12 12 12 11 10 10 9 8 7 8 8 9 10 11 11 11 11 11 11 11 10 10 10 10 10 10 10 10 11 11 11 11 11 12 12 12 11 11 11
7 6 5 5 5 6 7 8 9 10 10 10 10 10 10 10 10 11 11 11 10 10 10 8 8 8 8 7 8 9 10 10 11 11 12 12 11 11 11 10 10 9 9 9 9 9 9 9 10 10 10 9 9 8 7 6 6 6 7 8 9 10 10 11 11 11 11 11 11 11 11 10 10 11 11 11 11 11 11 12 12 12 11 11 11
6 6 5 5 5 6 7 8 9 9 9 10 11 11 11 11 11 10 10 10 10 10 9 8 7 7 7 7 6 7 7 8 8 8 8 8 8 8 7 7 7 6 6 6 7 7 7 7 7 8 8 8 8 7 7 7 6 6 6 7 7 8 9 9 9 9 10 10 11 11 11 11 12 12 12 12 12 12 12 12 13 13 12 12 12
6 6 6 6 6 6 6 6 6 7 8 9 10 10 10 9 9 9 9 8 8 7 7 6 6 6 5 5 5 4 5 5 5 5 5 5 5 5 5 5 5 4 4 5 5 4 4 5 5 5 6 6 7 7 7 7 7 7 7 7 7 8 8 8 9 9 9 10 11 11 11 12 12 13 13 13 13 13 13 13 13 13 13 13 13
5 5 5 5 5 6 6 6 6 6 6 6 7 7 7 7 7 7 7 6 6 5 4 4 3 3 2 3 2 2 2 2 2 2 2 2 2 2 3 3 3 3 4 4 4 4 4 4 5 5 5 6 6 7 7 8 8 8 9 9 9 9 9 9 9 9 9 10 11 11 12 13 13 14 14 14 14 15 14 14 15 14 14 14 14
3 3 3 3 3 4 4 4 5 5 5 5 5 4 4 4 4 4 4 4 4 3 3 2 1 1 1 1 1 1 1 1 2 2 2 2 2 3 3 3 3 4 4 4 5 5 5 6 6 6 7 7 8 8 8 9 9 9 10 10 10 11 11 11 11 11 11 11 12 12 13 13 14 15 15 16 16 17 16 16 16 16 15 14 14
4 4 3 3 2 2 2 2 2 2 3 3 3 3 3 2 2 1 1 1 1 2 2 2 2 3 3 3 3 3 4 4 4 4 4 4 5 5 5 5 6 6 7 7 7 7 7 8 8 8 8 9 9 9 10 10 10 11 11 11 11 12 13 13 14 14 14 14 14 14 15 15 15 16 17 17 17 17 17 17 17 17 17 16 16
6 5 5 4 4 3 3 3 2 2 2 2 1 2 2 2 2 2 3 3 3 3 4 4 5 5 5 6 6 6 6 6 6 7 7 7 7 7 8 8 8 9 9 9 9 9 9 9 10 10 10 11 11 11 11 11 12 12 12 12 12 13 14 14 15 15 16 16 16 16 16 17 17 18 18 18 18 18 19 19 18 18 18 18 18
8 8 7 7 6 6 6 5 5 5 5 4 4 4 4 4 4 4 5 5 6 6 6 6 7 7 7 8 8 8 8 8 9 9 9 9 10 10 10 10 10 11 11 11 11 11 11 11 11 11 11 12 12 12 12 12 12 12 13 13 14 15 15 15 15 16 16 17 17 18 18 18 19 19 20 20 20 20 20 20 20 20 20 19 18
Wind_Direction
196 198 201 204 207 209 212 213 213 213 213 212 212 213 214 213 212 211 210 210 210 209 207 207 207 206 206 205 205 205 205 205 206 205 206 206 206 205 204 202 202 202 201 201 202 203 203 203 205 204 203 204 204 204 203 202 203 204 203 204 205 207 208 194 159 132 162 178 176 171 170 165 162 167 169 169 177 184 185 187 188 190 192 196 200
202 200 201 204 210 213 214 214 214 215 215 215 216 217 218 219 218 216 215 215 215 214 213 211 211 210 208 207 206 206 206 206 206 205 206 206 205 205 205 203 201 201 200 200 200 201 202 203 205 205 204 205 205 204 204 203 202 203 203 203 204 206 207 198 175 148 145 165 170 169 171 172 172 176 182 182 186 193 195 194 195 196 198 198 197
218 212 209 209 214 216 215 215 214 215 217 218 219 220 220 221 219 217 217 216 217 218 217 216 214 213 211 210 208 207 208 207 207 206 206 206 206 206 205 204 202 201 200 201 201 200 201 202 203 203 203 204 205 204 204 204 204 204 203 204 204 204 206 203 190 167 152 162 173 174 177 182 183 183 191 197 197 199 200 200 201 201 202 206 204
238 230 225 223 221 218 217 218 218 220 223 224 224 224 223 222 220 219 218 217 217 218 219 218 216 214 213 211 209 209 209 208 208 208 208 209 208 207 207 206 205 204 203 203 202 201 201 202 202 202 202 202 204 204 204 204 204 205 204 203 204 204 204 205 202 187 167 166 178 184 184 187 189 191 195 198 200 202 202 200 200 201 203 208 211
253 245 240 236 230 225 223 222 224 227 231 232 232 230 228 226 224 223 221 219 218 218 218 217 216 215 214 213 211 211 210 209 209 209 210 210 211 210 209 208 207 207 206 205 204 203 203 203 202 202 201 202 202 202 202 203 204 205 205 203 203 203 202 203 204 199 185 175 177 185 189 189 190 197 202 202 198 197 201 200 199 201 204 209 215
264 256 250 246 242 239 235 231 232 235 237 240 240 238 235 231 228 226 224 222 220 219 218 217 217 217 217 216 215 213 213 212 212 212 212 212 212 212 211 211 210 209 208 207 207 206 205 205 204 202 202 202 201 201 201 202 203 204 204 203 201 200 201 202 201 200 195 186 179 181 189 192 192 194 201 206 202 197 197 199 202 206 207 209 213
273 264 259 255 251 249 247 245 244 244 244 247 246 242 239 235 231 229 228 226 223 221 220 219 219 219 219 218 217 216 215 215 215 215 214 213 212 212 212 212 211 211 210 209 209 209 208 207 206 205 205 205 204 202 201 201 202 204 205 203 200 198 198 199 199 199 195 186 180 181 185 190 193 193 195 200 204 204 203 199 199 203 204 208 211
287 280 271 266 264 263 263 261 258 257 255 254 251 247 243 239 236 233 230 229 227 225 224 223 222 221 221 220 219 218 217 217 216 215 214 213 212 212 212 212 211 211 210 210 211 211 211 210 209 209 209 209 208 206 204 202 202 203 205 204 200 197 197 196 195 198 197 189 182 181 182 184 189 191 190 191 195 204 206 203 200 198 195 197 203
313 306 294 286 286 284 281 276 270 267 264 259 256 253 247 243 240 235 232 231 230 229 228 226 224 222 221 220 220 219 218 218 218 216 214 213 212 212 212 212 212 211 210 211 212 213 213 212 212 212 212 213 213 212 210 208 205 203 203 202 199 197 196 194 193 194 196 194 189 181 179 184 187 184 186 193 200 204 201 200 202 196 188 186 193
342 343 338 327 319 312 303 293 284 276 270 265 261 257 252 247 241 237 235 233 233 231 228 225 225 224 222 220 220 219 220 221 220 219 217 215 213 213 213 213 213 212 211 210 211 213 214 214 214 214 215 215 215 215 214 213 212 211 207 204 201 197 194 193 194 194 193 195 194 185 179 187 191 190 193 200 205 204 196 195 193 181 175 177 189
347 347 347 343 340 337 327 316 306 293 282 275 269 264 258 251 245 241 238 236 234 231 227 225 224 224 224 222 220 220 222 223 222 221 220 219 216 214 213 213 214 213 212 211 211 212 213 214 214 214 214 215 215 216 216 215 215 215 214 211 208 204 200 196 195 195 194 196 197 193 190 195 197 198 201 202 203 204 201 197 187 174 171 172 178
360 358 358 356 354 350 339 327 317 305 295 285 277 270 263 256 250 245 242 239 237 233 229 227 225 224 224 224 223 223 224 225 224 222 221 220 219 218 216 215 214 214 214 213 213 212 212 213 213 213 214 214 213 213 215 216 216 215 215 215 213 213 212 209 205 202 199 198 197 197 201 203 202 202 204 203 202 204 205 199 189 181 180 182 182
14 14 12 9 5 1 352 342 332 320 310 297 286 276 267 259 253 249 247 245 241 237 233 230 227 225 224 224 225 226 227 227 226 225 224 222 221 220 219 217 216 215 216 215 214 214 213 212 212 212 213 213 213 212 212 213 213 213 214 215 214 215 216 216 216 215 211 206 201 203 206 207 206 207 209 207 200 195 195 194 191 189 190 192 189
22 19 17 12 8 5 1 356 349 340 330 315 299 285 272 264 258 254 251 248 243 239 235 231 229 228 227 227 228 228 229 229 229 228 227 225 223 221 220 220 219 218 218 217 216 215 214 213 212 211 212 211 211 211 210 209 208 207 209 211 212 212 212 214 217 219 218 215 212 212 213 212 213 214 211 209 203 195 190 188 188 189 189 187 182
27 23 21 15 11 8 4 359 354 350 345 334 315 298 285 273 266 259 253 248 244 240 237 234 231 230 229 229 229 229 229 231 231 231 230 227 225 222 220 219 220 220 220 219 219 218 217 216 215 214 213 212 212 212 211 209 206 203 203 205 206 206 207 210 213 215 217 217 218 219 217 214 216 214 207 204 203 199 194 189 184 179 171 160 155
24 21 21 16 13 12 9 3 359 355 352 347 335 323 309 292 276 261 248 242 241 238 237 236 235 233 232 231 232 231 231 232 233 233 232 229 225 222 220 219 219 220 220 220 221 220 219 219 218 216 215 214 214 214 213 210 205 201 201 201 200 200 201 205 207 208 208 209 210 213 210 205 205 202 196 194 194 190 184 177 173 169 158 145 146
16 13 12 10 8 9 8 6 3 358 355 351 344 334 323 310 296 271 240 228 228 226 223 222 222 223 224 225 228 230 232 233 234 234 233 229 225 222 219 217 218 219 219 219 219 219 220 220 219 217 217 217 216 214 212 210 205 201 199 196 195 196 197 200 201 201 199 196 194 195 190 185 185 184 184 185 185 183 175 165 167 170 162 152 153
8 4 2 360 1 3 4 5 4 2 359 355 348 340 331 319 306 291 265 240 217 200 193 191 192 198 204 210 217 224 229 232 231 229 229 228 226 224 220 216 216 217 214 213 213 214 215 217 218 217 217 218 217 213 210 208 204 200 196 192 188 190 191 191 190 188 186 181 178 176 174 173 175 175 177 179 180 184 182 175 174 173 168 167 162
359 355 352 353 355 356 358 1 3 3 1 357 351 344 338 327 314 306 286 256 230 206 198 194 191 197 211 219 223 229 236 240 239 234 230 226 225 225 221 215 212 211 207 203 203 206 208 210 212 215 218 219 217 212 209 207 204 200 195 188 184 187 189 187 184 179 178 176 174 173 171 171 174 174 176 178 179 185 192 192 187 182 178 173 163
354 350 346 349 351 352 353 355 360 4 0 356 351 344 339 334 323 314 292 263 249 218 198 188 176 172 194 217 225 234 241 248 252 249 244 235 226 222 218 212 208 205 202 200 199 200 205 207 207 211 216 218 216 210 207 206 204 200 195 189 188 190 188 185 183 182 180 178 178 178 176 175 178 178 177 178 180 182 188 191 192 193 188 176 167
350 348 345 346 346 348 350 350 355 1 359 356 350 344 344 340 325 311 282 255 230 178 162 155 145 131 129 160 190 218 239 251 256 253 252 245 227 216 213 212 207 202 199 199 201 202 205 208 209 211 214 214 211 206 203 203 203 202 198 196 197 194 187 182 182 183 181 178 177 177 176 173 173 173 173 175 180 184 185 183 182 187 187 179 174
350 351 350 347 346 348 349 348 351 354 356 358 353 347 349 345 329 311 258 218 184 161 155 150 139 123 113 120 123 122 178 243 247 238 236 234 218 210 211 210 206 201 196 195 199 202 205 208 207 206 207 205 202 199 197 198 201 202 201 199 197 193 186 181 179 179 178 176 172 168 167 166 165 166 170 174 178 181 183 182 178 178 179 180 182
352 353 352 350 351 351 350 350 351 350 352 359 355 347 346 345 345 340 264 209 173 154 152 151 142 126 113 108 105 105 111 116 161 197 202 203 201 202 206 207 205 205 201 196 194 195 198 202 201 199 202 203 201 197 196 197 199 200 198 196 192 186 181 177 174 173 171 169 165 162 162 161 160 161 165 168 169 171 173 176 179 179 174 170 174
350 349 346 346 348 349 350 351 351 349 350 355 358 356 352 348 349 352 288 216 187 161 149 150 141 122 108 100 98 105 114 116 123 144 169 189 197 199 201 202 203 205 202 196 192 189 188 190 190 189 189 188 186 185 186 188 189 189 188 187 184 179 175 171 169 167 165 163 161 158 158 160 160 159 160 159 159 161 163 166 171 175 172 162 155
345 343 341 342 342 343 347 349 350 351 353 356 1 5 2 356 350 346 325 245 207 175 155 153 143 125 112 100 93 98 110 119 124 130 141 165 185 193 195 192 192 193 188 180 177 174 171 168 166 165 164 163 162 162 159 157 159 162 167 171 172 171 170 168 165 164 161 159 156 152 150 155 157 155 153 154 154 155 156 156 157 162 164 159 150
340 339 339 340 340 341 345 347 349 352 355 360 6 9 8 5 359 350 342 316 239 192 172 163 152 140 132 122 113 108 110 115 120 127 136 143 150 162 169 170 175 176 169 161 158 156 155 155 155 153 152 152 152 149 143 140 142 146 150 156 161 164 165 165 164 161 154 149 147 144 143 145 148 148 149 151 150 150 152 152 150 150 156 157 148
334 335 336 337 338 339 341 341 345 353 0 7 12 14 14 15 13 9 1 347 315 250 206 183 167 159 151 143 137 128 119 120 121 123 133 141 143 148 151 152 157 159 153 149 150 150 149 149 149 147 146 144 144 142 138 138 139 138 139 144 150 154 159 162 162 157 150 144 141 137 137 139 141 142 145 146 143 142 147 151 148 145 151 156 145
328 329 331 333 335 337 338 336 339 353 11 22 29 29 24 23 25 23 8 349 328 301 262 227 202 185 170 158 149 136 127 129 131 131 137 141 144 149 150 150 153 155 150 147 146 144 143 142 139 138 137 135 132 131 131 132 131 129 128 130 133 138 145 150 149 145 143 141 136 133 134 137 138 139 140 140 139 141 148 153 150 148 154 159 147
325 324 325 330 332 334 335 333 329 336 16 48 53 50 42 36 37 32 12 343 316 295 273 254 235 209 184 170 163 155 144 140 142 147 149 147 148 153 154 153 154 153 150 149 146 140 136 134 131 129 128 126 123 122 124 125 125 123 122 123 125 128 132 134 134 133 136 138 135 134 135 136 136 139 141 139 137 143 154 158 154 152 154 153 146
322 320 322 328 335 335 332 326 318 310 310 81 90 84 73 64 66 66 47 22 340 286 261 247 230 207 185 176 181 179 163 147 146 157 159 158 161 160 157 155 151 147 146 148 144 136 130 124 119 121 122 120 118 118 120 123 124 121 119 121 124 125 125 127 128 131 136 139 138 138 139 138 138 141 143 140 137 140 148 152 151 149 145 138 134
318 317 320 324 329 331 325 315 306 296 282 242 144 120 103 89 85 91 92 88 85 86 103 186 197 190 174 155 147 149 144 133 129 138 149 158 167 162 155 152 147 145 149 148 138 128 124 118 111 114 116 111 110 115 119 121 121 120 119 119 120 123 124 125 129 135 138 139 139 139 141 141 140 141 141 138 135 135 138 140 141 143 141 135 131
316 314 316 316 319 321 315 307 301 288 273 254 207 154 127 108 95 92 98 106 107 102 99 100 108 127 139 133 125 121 119 117 119 126 132 139 146 148 148 146 142 147 156 151 135 125 126 122 116 117 118 114 115 118 119 119 119 121 122 119 116 120 123 126 133 138 139 138 138 138 139 139 139 139 139 137 135 133 133 134 134 136 138 134 129
317 313 313 314 318 322 321 317 310 297 283 266 237 195 152 130 117 108 104 106 109 110 107 102 99 103 111 117 119 117 115 116 121 126 128 129 129 130 129 127 131 146 157 149 132 124 126 123 119 122 123 121 123 125 124 125 126 126 125 122 119 120 124 130 137 138 137 137 138 136 137 140 140 138 136 136 136 133 132 132 134 135 137 133 128
323 317 316 317 318 320 326 332 327 314 307 287 260 239 204 161 139 126 116 108 104 102 101 101 103 104 104 105 108 112 113 114 117 122 125 124 122 122 121 117 122 141 151 143 131 127 128 125 123 126 126 123 125 126 125 128 130 129 127 126 124 125 129 134 136 134 133 136 136 135 136 139 140 139 137 135 134 133 131 133 135 134 134 132 128
331 325 321 321 322 321 325 332 333 326 321 304 281 250 206 174 146 129 119 111 103 94 89 90 95 99 102 102 104 109 113 114 113 116 117 115 120 130 131 121 115 119 126 128 127 129 130 128 127 129 130 128 129 129 126 127 128 127 126 127 127 129 132 134 134 134 135 136 135 135 137 138 139 141 140 137 136 134 131 133 135 134 137 138 133
334 330 326 324 323 319 317 319 324 332 334 292 256 203 175 166 147 124 110 109 108 100 90 86 89 95 101 102 104 109 114 118 119 120 117 118 132 145 136 118 109 108 110 115 121 125 127 129 130 130 131 130 130 130 130 129 128 128 129 130 130 130 131 132 133 134 135 135 135 136 139 139 139 141 140 137 137 137 135 137 139 137 140 147 143
331 331 330 329 325 319 314 310 308 311 309 267 216 174 152 143 133 118 105 106 109 101 91 90 90 89 89 91 97 101 103 107 113 115 115 120 135 140 129 119 116 114 110 111 119 121 122 127 131 132 133 133 132 132 132 131 131 132 133 134 134 134 132 133 134 135 136 136 136 138 139 139 140 144 144 139 138 141 143 145 148 146 146 151 151
327 327 330 330 326 321 317 313 311 308 291 219 172 154 140 128 121 111 102 103 104 93 84 85 82 73 67 74 90 102 107 108 104 95 94 100 109 113 116 117 118 117 114 116 120 120 119 123 129 132 134 134 135 135 135 134 134 135 135 134 134 134 133 133 135 136 138 137 138 139 142 142 143 148 150 148 147 150 152 154 155 155 154 156 158
331 331 333 334 332 327 324 324 327 330 340 136 143 143 134 123 116 110 104 101 97 88 84 82 73 62 56 62 87 107 108 102 95 89 88 92 97 102 107 109 111 113 116 120 122 122 121 123 127 131 133 134 135 137 138 138 137 137 137 137 135 134 136 137 137 139 142 143 143 145 147 148 150 153 155 157 157 158 158 160 161 161 160 161 163
335 338 342 348 349 347 349 357 5 18 47 83 113 126 124 119 117 116 112 108 102 99 97 91 78 65 55 53 87 118 108 96 94 97 97 96 99 103 105 106 106 109 113 118 122 124 125 126 128 131 133 135 138 139 141 142 142 141 142 143 142 142 144 145 145 147 149 150 151 153 155 156 158 159 159 162 165 165 164 164 165 166 166 166 168
339 344 352 2 10 18 28 35 39 46 58 76 90 98 103 109 114 116 115 113 114 116 113 104 93 82 72 67 100 126 117 106 104 105 103 102 104 106 107 108 111 113 115 118 122 125 127 129 132 134 136 138 141 143 145 146 147 147 147 148 148 149 150 152 153 155 157 157 159 162 163 164 165 165 165 168 169 170 169 168 168 170 170 171 172
343 351 3 14 28 44 49 50 54 62 68 72 75 79 87 96 103 105 103 105 112 116 113 105 97 90 84 86 109 122 119 115 113 111 109 110 111 111 111 115 119 121 123 126 128 131 132 133 134 136 137 139 141 144 147 149 151 152 151 152 153 154 154 157 159 160 164 167 170 173 173 173 174 174 175 176 175 174 174 174 173 174 174 173 175
347 358 12 26 45 60 66 68 73 77 77 76 75 79 88 95 99 102 101 99 103 107 104 100 97 93 88 93 109 114 111 110 111 110 111 113 115 115 117 120 123 126 129 131 134 137 138 138 138 138 139 139 141 145 151 155 159 160 159 160 162 162 163 166 168 171 175 179 182 185 186 186 186 185 185 186 184 181 181 181 180 180 180 180 181
349 359 15 40 60 71 80 86 87 86 88 89 88 88 90 93 96 100 102 102 104 107 107 106 104 97 93 99 108 109 106 105 107 107 108 111 114 117 118 121 126 131 133 134 138 143 145 146 146 146 147 149 151 154 160 167 173 177 177 176 175 176 178 178 178 180 184 187 190 194 195 196 198 198 197 198 199 195 193 193 191 191 191 190 190
2 8 14 30 51 66 78 87 92 94 97 99 96 93 94 96 95 95 96 99 103 107 111 114 113 107 105 107 107 102 102 104 106 106 109 112 115 116 119 124 132 140 141 142 146 151 155 157 156 155 157 160 162 167 175 181 185 193 199 199 196 194 194 193 190 190 192 195 199 202 202 203 207 209 209 210 209 207 207 206 203 200 200 200 200
9 10 15 22 34 47 55 67 82 92 98 101 101 99 100 102 102 100 98 98 100 102 105 111 113 111 112 115 114 107 107 109 109 109 113 119 122 126 129 137 145 153 157 159 163 169 174 176 177 177 178 179 180 186 193 199 203 208 214 218 219 217 213 209 206 205 204 206 209 211 211 212 214 216 217 217 216 215 215 215 214 212 210 209 209
6 13 22 25 31 34 34 39 52 61 70 83 94 99 103 105 108 110 109 106 106 106 103 101 105 108 109 114 121 124 125 129 134 136 139 147 156 158 158 163 172 182 187 186 189 198 202 205 208 210 211 212 212 210 212 216 218 222 226 229 232 234 233 228 225 222 219 217 219 220 221 221 220 219 221 221 219 220 219 218 218 220 218 215 214
347 4 16 16 21 27 26 34 44 40 35 43 53 60 75 88 96 105 112 118 127 131 131 134 150 171 203 225 225 223 212 209 215 212 207 215 224 225 222 221 221 224 227 225 223 225 227 229 230 230 232 235 235 234 235 235 234 235 236 237 238 240 241 240 240 238 233 229 228 228 229 229 227 225 224 224 223 224 224 221 221 223 220 217 216
315 325 333 329 337 351 349 360 30 21 11 24 30 19 19 27 19 19 66 141 178 184 198 211 214 223 237 242 243 248 250 247 247 246 244 244 245 245 244 244 243 244 245 244 243 242 241 241 242 243 244 246 247 247 248 249 247 247 248 246 245 245 244 244 244 244 242 240 238 234 231 232 231 229 228 227 225 225 225 224 222 222 219 217 217
295 300 303 302 302 303 305 304 299 298 303 309 304 296 302 309 302 292 285 279 271 260 254 251 246 244 246 247 247 249 250 250 251 252 251 251 251 250 249 248 247 248 249 249 248 248 247 246 247 249 249 249 251 251 252 253 254 254 254 252 251 249 247 246 245 245 245 244 242 238 234 232 230 229 229 229 227 225 225 225 224 223 221 220 219
283 285 286 286 286 286 287 288 288 286 286 286 280 273 270 272 274 272 271 271 270 268 267 265 263 259 257 255 255 255 255 255 255 254 253 253 253 253 252 252 250 250 251 251 251 252 252 251 251 252 252 253 254 254 254 255 255 254 254 253 252 250 249 248 246 245 244 243 242 240 237 234 232 229 229 229 227 226 226 225 223 223 222 221 220